Location: Firdgum
(53.2488°N, 5.5615°E)
Time: 23:47:34
(UTC+00:00)

SL-16 R/B - Pass Details

Date: 08 December 2019
Orbit: 840 x 849 km, 71.0° (Epoch: 17 January)

Event Time Altitude Azimuth Distance (km) Brightness Sun altitude
Exits shadow 04:46:41 18° 204° (SSW) 1,949 3.9 -24.3°
Drops below altitude 10° 04:48:22 10° 193° (SSW) 2,469 4.5 -24.0°
Sets 04:51:02 0° 183° (S) 3,399 5.4 -23.6°
